Meteo Giornale » Osservazioni meteo Stati Uniti (USA) » Hoonah Seaplane
ore: 06:56 - Osservazioni Meteo Hoonah Seaplane
Lat. 58° 7' N Lon. 135° 27' W Alt. 0 metri s.l.m.
11 °C
Coperto
Temp. 24 Ore
9 °C
14 °C
Est/Sud-Est
9.3 Km/h
Dew point 9 °C
Umidità 87 %
Visibilità 11 Km
Il sole sorge alle ore 06:02
Il sole tramonta alle ore 20:00
| Data e Ora | Cielo e Fenomeni | T °C | DP °C | Um. % | Pres. hPa | Vis. km | Vento km/h | |
|---|---|---|---|---|---|---|---|---|
| Oggi h: 06:56 | Coperto | 11 | 9 | 87 | 999 | 11 | E/SE 9.3 | |
| Oggi h: 06:32 | Coperto | 11 | 9 | 87 | 999 | 11 | E/NE 11.1 | |
| Oggi h: 05:56 | Coperto | 11 | 9 | 87 | 999 | 11 | N 11.1 | |
| Oggi h: 05:19 | Coperto | 10 | 9 | 93 | 999 | 11 | E 14.8 | |
| Oggi h: 04:56 | Coperto | 11 | 9 | 87 | 999 | 11 | E/NE 13 | |
| Oggi h: 04:38 | Coperto | 11 | 9 | 87 | 999 | 11 | E 14.8 | |
| Oggi h: 04:17 | Coperto | 11 | 10 | 93 | 999 | 11 | E/NE 11.1 | |
| Oggi h: 04:01 | Coperto | 11 | 10 | 93 | 999 | 11 | E/NE 11.1 | |
| Oggi h: 03:56 | Coperto | 11 | 10 | 93 | 999 | 11 | E/NE 13 | |
| Oggi h: 03:49 | Coperto | 11 | 10 | 93 | 999 | 11 | E 13 | |
| Oggi h: 03:18 | Coperto | 11 | 10 | 93 | 999 | 11 | E 14.8 | |
| Oggi h: 03:02 | Coperto | 11 | 10 | 93 | 999 | 11 | E 13 | |
| Oggi h: 02:56 | Coperto | 11 | 10 | 93 | 999 | 11 | E 14.8 | |
| Oggi h: 02:51 | Coperto | 11 | 10 | 93 | 999 | 11 | E 13 | |
| Oggi h: 01:56 | Coperto | 10 | 10 | 100 | 999 | 11 | E 11.1 | |
| Oggi h: 01:32 | Coperto | 9 | 9 | 100 | 999 | 11 | N 0 | |
| Oggi h: 01:17 | Coperto | 9 | 9 | 100 | 999 | 11 | N 0 | |
| Oggi h: 00:56 | Coperto | 9 | 9 | 100 | 999 | 11 | N 0 | |
| Ieri h: 23:56 | Coperto | 9 | 9 | 100 | 999 | 11 | N 0 | |
| Ieri h: 22:56 | Coperto | 9 | 9 | 100 | 999 | 11 | N 0 | |
| Ieri h: 21:56 | Coperto | 10 | 9 | 93 | 999 | 11 | N 0 | |
| Ieri h: 20:56 | Coperto | 11 | 9 | 87 | 1000 | 10 | E 9.3 | |
| Ieri h: 19:56 | Coperto | 11 | 10 | 93 | 1000 | 10 | E 7.4 | |
| Ieri h: 18:56 | Coperto | 11 | 11 | 100 | 1000 | 10 | N 0 | |
| Ieri h: 17:56 | Coperto | 12 | 11 | 93 | 1000 | 10 | E/NE 7.4 | |
| Ieri h: 16:56 | Coperto | 12 | 11 | 93 | 1001 | 10 | N 5.5 | |
| Ieri h: 15:56 | Coperto | 12 | 12 | 100 | 1000 | 0 | E/NE 11.1 | |
| Ieri h: 14:56 | Coperto | 12 | 12 | 100 | 1001 | 0 | N 5.5 | |
| Ieri h: 13:56 | Coperto | 13 | 12 | 93 | 1001 | 0 | E 7.4 | |
| Ieri h: 12:56 | Coperto | 14 | 11 | 82 | 1001 | 0 | E 9.3 | |
| Ieri h: 11:56 | Coperto | 14 | 12 | 87 | 1001 | 0 | N 0 | |
| Ieri h: 10:56 | Coperto | 13 | 11 | 87 | 1002 | 0 | E 9.3 | |
| Ieri h: 09:56 | Coperto | 13 | 11 | 87 | 1002 | 0 | E 9.3 | |
| Ieri h: 08:56 | Coperto | 12 | 12 | 100 | 1003 | 0 | N 0 | |
| Ieri h: 07:56 | Coperto | 11 | 11 | 100 | 1003 | 0 | N 0 | |



